Weather History for Lambertville, MI

Change the Weather History Date:

Monday, June 10, 2013

  Actual Average (KTOL) Record (KTOL)
Temperature  
Mean Temperature 68 °F 68 °F  
Max Temperature 73 °F 79 °F 96 °F (1911)
Min Temperature 64 °F 57 °F 35 °F (1972)
Degree Days  
Heating Degree Days 0 1  
Month to date heating degree days 23  
Since 1 June heating degree days 23  
Since 1 July heating degree days 6133  
Cooling Degree Days 4 4  
Month to date cooling degree days 37  
Year to date cooling degree days 90  
Since 1 June cooling degree days 37  
Growing Degree Days 18 (Base 50)    
Moisture  
Dew Point 63 °F    
Average Humidity 88    
Maximum Humidity 94    
Minimum Humidity 73    
Precipitation  
Precipitation 0.00 in 0.13 in 1.79 in (2008)
Month to date precipitation 1.24  
Year to date precipitation 14.61  
Snow  
Snow 0.00 in 0.00 in - ()
Month to date snowfall 0.0  
Since 1 June snowfall 0.0  
Since 1 July snowfall 37.6  
Snow Depth -    
Sea Level Pressure  
Sea Level Pressure 29.82 in    
Wind  
Wind Speed 2 mph (South)    
Max Wind Speed 16 mph    
Max Gust Speed 31 mph    
Visibility 6 miles    
Events Rain    
T = Trace of Precipitation, MM = Missing Value Source: NWS Daily Summary

Daily Weather History Graph

Daily Weather History Graph

Search for Another Location

Airport:

Trip Planner

Search our weather history database for the weather conditions in past years. The results will help you decide how hot, cold, wet, or windy it might be!

Date:

Astronomy

Jun. 10, 2013 Rise Set
Actual Time 5:59 AM EDT 9:08 PM EDT
Civil Twilight 5:25 AM EDT 9:42 PM EDT
Nautical Twilight 4:42 AM EDT 10:26 PM EDT
Astronomical Twilight 3:50 AM EDT 11:18 PM EDT
Moon 7:48 AM EDT (6/10) 10:33 PM EDT (6/10)
Length of Visible Light 16h 17m
Length of Day
15h 09m
Waxing Crescent, 4% of the Moon is Illuminated
Jun 10
Waxing Crescent
Jun 16
First Quarter
Jun 23
Full
Jun 30
Last Quarter
Jul 8
New

Hourly Weather History & Observations

Time (EDT) Temp. Dew Point Humidity Pressure Visibility Wind Dir Wind Speed Gust Speed Precip Events Conditions
12:15 AM 64.4 °F 60.8 °F 88% 29.96 in 2.0 mi West 4.6 mph - N/A Rain Light Rain
12:35 AM 64.4 °F 62.6 °F 94% 29.95 in 5.0 mi Calm Calm - N/A   Overcast
12:55 AM 64.4 °F 62.6 °F 94% 29.94 in 4.0 mi Calm Calm - N/A Rain Rain
1:15 AM 64.4 °F 62.6 °F 94% 29.93 in 5.0 mi Calm Calm - N/A   Overcast
1:35 AM 64.4 °F 60.8 °F 88% 29.93 in 5.0 mi Calm Calm - N/A   Overcast
1:55 AM 64.4 °F 60.8 °F 88% 29.92 in 5.0 mi Calm Calm - N/A   Mostly Cloudy
2:15 AM 64.4 °F 62.6 °F 94% 29.91 in 5.0 mi East 3.5 mph - N/A   Mostly Cloudy
2:35 AM 64.4 °F 62.6 °F 94% 29.91 in 4.0 mi Calm Calm - N/A Rain Rain
2:55 AM 64.4 °F 62.6 °F 94% 29.91 in 5.0 mi Calm Calm - N/A Rain Light Rain
3:15 AM 64.4 °F 62.6 °F 94% 29.90 in 4.0 mi Calm Calm - N/A Rain Rain
3:35 AM 64.4 °F 62.6 °F 94% 29.89 in 3.0 mi Calm Calm - N/A Rain Rain
3:55 AM 64.4 °F 62.6 °F 94% 29.88 in 3.0 mi ENE 3.5 mph - N/A Rain Light Rain
4:15 AM 64.4 °F 62.6 °F 94% 29.88 in 3.0 mi ENE 3.5 mph - N/A   Overcast
4:35 AM 64.4 °F 62.6 °F 94% 29.87 in 3.0 mi ENE 4.6 mph - N/A Rain Rain
4:55 AM 64.4 °F 62.6 °F 94% 29.87 in 4.0 mi ENE 4.6 mph - N/A Rain Rain
5:15 AM 64.4 °F 62.6 °F 94% 29.87 in 3.0 mi ENE 4.6 mph - N/A Rain Rain
5:35 AM 64.4 °F 62.6 °F 94% 29.86 in 3.0 mi ENE 4.6 mph - N/A   Overcast
5:55 AM 64.4 °F 62.6 °F 94% 29.85 in 3.0 mi ENE 3.5 mph - N/A   Overcast
6:15 AM 64.4 °F 62.6 °F 94% 29.85 in 3.0 mi East 3.5 mph - N/A Rain Rain
6:35 AM 64.4 °F 62.6 °F 94% 29.85 in 2.5 mi Calm Calm - N/A   Overcast
6:55 AM 64.4 °F 62.6 °F 94% 29.85 in 2.0 mi Calm Calm - N/A   Overcast
7:15 AM 64.4 °F 62.6 °F 94% 29.85 in 1.5 mi East 3.5 mph - N/A Rain Light Rain
7:35 AM 64.4 °F 62.6 °F 94% 29.84 in 1.5 mi Calm Calm - N/A Rain Rain
7:55 AM 64.4 °F 62.6 °F 94% 29.84 in 1.5 mi Calm Calm - N/A Rain Light Rain
8:15 AM 66.2 °F 62.6 °F 88% 29.84 in 2.0 mi Calm Calm - N/A Rain Rain
8:35 AM 66.2 °F 62.6 °F 88% 29.84 in 2.0 mi Calm Calm - N/A Rain Light Rain
8:55 AM 66.2 °F 64.4 °F 94% 29.84 in 2.0 mi SE 3.5 mph - N/A Rain Rain
9:15 AM 66.2 °F 64.4 °F 94% 29.83 in 2.0 mi Calm Calm - N/A Rain Light Rain
9:35 AM 66.2 °F 64.4 °F 94% 29.83 in 2.5 mi SSE 3.5 mph - N/A Rain Light Rain
9:55 AM 68.0 °F 64.4 °F 88% 29.83 in 2.5 mi SSE 4.6 mph - N/A Rain Light Rain
10:15 AM 68.0 °F 64.4 °F 88% 29.82 in 3.0 mi South 3.5 mph - N/A Rain Light Rain
10:35 AM 68.0 °F 64.4 °F 88% 29.81 in 3.0 mi SE 4.6 mph - N/A Rain Light Rain
10:55 AM 68.0 °F 64.4 °F 88% 29.80 in 5.0 mi SSE 3.5 mph - N/A Rain Light Rain
11:15 AM 68.0 °F 64.4 °F 88% 29.80 in 5.0 mi Calm Calm - N/A   Light Drizzle
11:35 AM 68.0 °F 64.4 °F 88% 29.80 in 5.0 mi Calm Calm - N/A Rain Light Rain
11:55 AM 69.8 °F 64.4 °F 83% 29.81 in 7.0 mi Calm Calm - N/A   Overcast
12:15 PM 69.8 °F 64.4 °F 83% 29.80 in 7.0 mi Calm Calm - N/A   Overcast
12:35 PM 68.0 °F 64.4 °F 88% 29.80 in 4.0 mi West 4.6 mph - N/A Rain Rain
12:55 PM 68.0 °F 62.6 °F 83% 29.80 in 10.0 mi Calm Calm - N/A   Overcast
1:15 PM 69.8 °F 62.6 °F 78% 29.80 in 10.0 mi West 3.5 mph - N/A   Overcast
1:35 PM 69.8 °F 62.6 °F 78% 29.78 in 10.0 mi Calm Calm - N/A   Overcast
1:55 PM 69.8 °F 64.4 °F 83% 29.78 in 10.0 mi Calm Calm - N/A   Mostly Cloudy
2:15 PM 69.8 °F 64.4 °F 83% 29.78 in 10.0 mi East 3.5 mph - N/A Rain Light Rain
2:35 PM 66.2 °F 60.8 °F 83% 29.79 in 3.0 mi WSW 8.1 mph - N/A Rain Heavy Rain
2:55 PM 66.2 °F 60.8 °F 83% 29.78 in 10.0 mi Calm Calm - N/A   Overcast
3:15 PM 68.0 °F 62.6 °F 83% 29.78 in 10.0 mi North 3.5 mph - N/A   Overcast
3:35 PM 69.8 °F 64.4 °F 83% 29.78 in 10.0 mi Calm Calm - N/A   Overcast
3:55 PM 69.8 °F 64.4 °F 83% 29.78 in 10.0 mi NW 3.5 mph - N/A   Overcast
4:15 PM 71.6 °F 64.4 °F 78% 29.77 in 10.0 mi NNW 4.6 mph - N/A   Overcast
4:35 PM 71.6 °F 64.4 °F 78% 29.77 in 10.0 mi Calm Calm - N/A   Overcast
4:55 PM 73.4 °F 64.4 °F 73% 29.76 in 10.0 mi NW 3.5 mph - N/A   Mostly Cloudy
5:15 PM 73.4 °F 64.4 °F 73% 29.76 in 10.0 mi SW 3.5 mph - N/A   Mostly Cloudy
5:35 PM 73.4 °F 64.4 °F 73% 29.75 in 10.0 mi SSE 6.9 mph - N/A   Mostly Cloudy
5:55 PM 73.4 °F 64.4 °F 73% 29.75 in 10.0 mi South 3.5 mph - N/A   Scattered Clouds
6:15 PM 73.4 °F 64.4 °F 73% 29.75 in 10.0 mi SSW 4.6 mph - N/A   Mostly Cloudy
6:35 PM 71.6 °F 64.4 °F 78% 29.75 in 10.0 mi Calm Calm - N/A   Overcast
6:55 PM 71.6 °F 64.4 °F 78% 29.75 in 10.0 mi Calm Calm - N/A   Overcast
7:15 PM 69.8 °F 60.8 °F 73% 29.79 in 10.0 mi West 16.1 mph 31.1 mph N/A Rain Heavy Rain
7:35 PM 64.4 °F 60.8 °F 88% 29.79 in 2.5 mi West 4.6 mph - N/A Rain Heavy Rain
7:55 PM 64.4 °F 60.8 °F 88% 29.78 in 4.0 mi SW 3.5 mph - N/A Rain Rain
8:15 PM 64.4 °F 62.6 °F 94% 29.77 in 4.0 mi WSW 3.5 mph - N/A Rain Light Rain
8:35 PM 64.4 °F 62.6 °F 94% 29.76 in 10.0 mi Calm Calm - N/A Rain Rain
8:55 PM 66.2 °F 62.6 °F 88% 29.76 in 10.0 mi Calm Calm - N/A   Overcast
9:15 PM 64.4 °F 62.6 °F 94% 29.76 in 10.0 mi Calm Calm - N/A   Overcast
9:35 PM 64.4 °F 60.8 °F 88% 29.76 in 10.0 mi Calm Calm - N/A   Mostly Cloudy
9:55 PM 64.4 °F 60.8 °F 88% 29.76 in 10.0 mi Calm Calm - N/A   Scattered Clouds
10:15 PM 64.4 °F 60.8 °F 88% 29.77 in 7.0 mi Calm Calm - N/A   Scattered Clouds
10:35 PM 64.4 °F 62.6 °F 94% 29.78 in 7.0 mi Calm Calm - N/A   Mostly Cloudy
10:55 PM 64.4 °F 62.6 °F 94% 29.78 in 7.0 mi SSW 3.5 mph - N/A   Overcast
11:15 PM 64.4 °F 62.6 °F 94% 29.78 in 7.0 mi WSW 4.6 mph - N/A   Mostly Cloudy
11:35 PM 64.4 °F 62.6 °F 94% 29.78 in 10.0 mi WSW 3.5 mph - N/A   Mostly Cloudy
11:55 PM 64.4 °F 62.6 °F 94% 29.78 in 7.0 mi WSW 3.5 mph - N/A   Scattered Clouds